RYR1WB LMML-LIMJ

Flight info

Callsign RYR1WB
Flight time 1h 32m
Altitude 34000
Route GZO M622 ADEXI DCT ELB DCT UPDIN DCT SPEZI M729 IDONA
Aircraft B738/M-SDE2E3FGHIRWXY/LB1

Departure

Time 2026-04-14 12:28
Airport Malta International Airport (LMML)

Arrival

Time 2026-04-14 14:00
Airport Genoa Cristoforo Colombo Airport (LIMJ)
Time Latitude Longitude Altitude Speed Heading
2026-04-14 12:10 35.85406 14.48516 308 ft 0 kts
2026-04-14 12:20 35.85402 14.48516 308 ft 2 kts
2026-04-14 12:20 35.85383 14.48516 308 ft 3 kts 359°
2026-04-14 12:20 35.85362 14.48517 308 ft 3 kts 349°
2026-04-14 12:20 35.85345 14.48524 308 ft 2 kts 323°
2026-04-14 12:21 35.85339 14.48529 308 ft 0 kts 316°
2026-04-14 12:23 35.85340 14.48529 308 ft 0 kts 316°
2026-04-14 12:23 35.85358 14.48507 308 ft 11 kts 315°
2026-04-14 12:24 35.85414 14.48439 308 ft 22 kts 315°
2026-04-14 12:24 35.85549 14.48271 308 ft 29 kts 315°
2026-04-14 12:24 35.85657 14.48185 308 ft 9 kts 283°
2026-04-14 12:24 35.85659 14.48038 308 ft 23 kts 270°
2026-04-14 12:25 35.85648 14.47919 308 ft 19 kts 248°
2026-04-14 12:25 35.85745 14.47757 308 ft 33 kts 316°
2026-04-14 12:25 35.85843 14.47572 308 ft 22 kts 247°
2026-04-14 12:25 35.85715 14.47348 308 ft 42 kts 233°
2026-04-14 12:26 35.85541 14.47060 308 ft 40 kts 232°
2026-04-14 12:26 35.85384 14.46804 308 ft 36 kts 233°
2026-04-14 12:26 35.85243 14.46564 308 ft 33 kts 234°
2026-04-14 12:26 35.85114 14.46341 308 ft 31 kts 234°
2026-04-14 12:27 35.84995 14.46136 308 ft 28 kts 234°
2026-04-14 12:27 35.84880 14.45968 308 ft 21 kts 198°
2026-04-14 12:27 35.84764 14.46019 308 ft 15 kts 110°
2026-04-14 12:27 35.84792 14.46097 308 ft 13 kts 54°
2026-04-14 12:28 35.84999 14.46451 308 ft 90 kts 54°
2026-04-14 12:28 35.85503 14.47317 320 ft 155 kts 54°
2026-04-14 12:28 35.86141 14.48449 927 ft 167 kts 55°
2026-04-14 12:28 35.86838 14.49594 2045 ft 157 kts 53°
2026-04-14 12:29 35.87475 14.50710 2772 ft 165 kts 56°
2026-04-14 12:29 35.88155 14.51926 3316 ft 176 kts 55°
2026-04-14 12:29 35.88860 14.53169 4026 ft 178 kts 56°
2026-04-14 12:29 35.89689 14.54330 4663 ft 187 kts 36°
2026-04-14 12:30 35.90948 14.54801 5253 ft 196 kts
2026-04-14 12:30 35.92233 14.54325 5862 ft 198 kts 327°
2026-04-14 12:30 35.93172 14.53110 6527 ft 196 kts 303°
2026-04-14 12:30 35.93832 14.51593 6961 ft 210 kts 289°
2026-04-14 12:31 35.94414 14.49838 7232 ft 233 kts 289°
2026-04-14 12:31 35.95043 14.47890 7498 ft 256 kts 288°
2026-04-14 12:31 35.95715 14.45785 7999 ft 268 kts 288°
2026-04-14 12:31 35.96408 14.43604 8672 ft 277 kts 287°
2026-04-14 12:32 35.97132 14.41316 9168 ft 295 kts 287°
2026-04-14 12:32 35.97900 14.38889 9553 ft 315 kts 287°
2026-04-14 12:32 35.98720 14.36290 10002 ft 331 kts 287°
2026-04-14 12:32 35.99567 14.33612 10713 ft 337 kts 287°
2026-04-14 12:33 36.00420 14.30904 11515 ft 340 kts 287°
2026-04-14 12:33 36.01363 14.28203 12299 ft 347 kts 294°
2026-04-14 12:33 36.02766 14.25739 13066 ft 356 kts 307°
2026-04-14 12:33 36.04617 14.23648 13821 ft 366 kts 319°
2026-04-14 12:34 36.06679 14.21774 14560 ft 369 kts 318°
2026-04-14 12:34 36.08721 14.19891 15231 ft 373 kts 318°
2026-04-14 12:34 36.10816 14.17961 15920 ft 377 kts 318°
2026-04-14 12:34 36.12928 14.16014 16586 ft 381 kts 318°
2026-04-14 12:35 36.15093 14.14016 17249 ft 384 kts 317°
2026-04-14 12:35 36.17217 14.12055 17880 ft 387 kts 317°
2026-04-14 12:35 36.19385 14.10050 18490 ft 392 kts 317°
2026-04-14 12:35 36.21584 14.08015 19059 ft 396 kts 317°
2026-04-14 12:36 36.23809 14.05956 19622 ft 401 kts 317°
2026-04-14 12:36 36.26051 14.03878 20179 ft 405 kts 317°
2026-04-14 12:36 36.28314 14.01779 20722 ft 409 kts 317°
2026-04-14 12:36 36.30608 13.99652 21254 ft 413 kts 317°
2026-04-14 12:37 36.32928 13.97513 21739 ft 418 kts 317°
2026-04-14 12:37 36.35276 13.95358 22229 ft 422 kts 317°
2026-04-14 12:37 36.37646 13.93175 22704 ft 426 kts 317°
2026-04-14 12:37 36.40034 13.90969 23185 ft 430 kts 317°
2026-04-14 12:38 36.44870 13.86486 24069 ft 438 kts 317°
2026-04-14 12:38 36.47328 13.84200 24370 ft 446 kts 317°
2026-04-14 12:38 36.49823 13.81881 24823 ft 448 kts 317°
2026-04-14 12:39 36.52321 13.79555 25313 ft 450 kts 317°
2026-04-14 12:39 36.54799 13.77247 25752 ft 452 kts 317°
2026-04-14 12:39 36.57305 13.74909 26181 ft 454 kts 317°
2026-04-14 12:39 36.59855 13.72531 26618 ft 456 kts 317°
2026-04-14 12:40 36.62400 13.70153 27029 ft 458 kts 317°
2026-04-14 12:40 36.64953 13.67764 27442 ft 460 kts 316°
2026-04-14 12:40 36.67520 13.65361 27843 ft 462 kts 316°
2026-04-14 12:40 36.70092 13.62952 28192 ft 465 kts 316°
2026-04-14 12:41 36.72689 13.60516 28560 ft 466 kts 316°
2026-04-14 12:41 36.75287 13.58077 28920 ft 468 kts 316°
2026-04-14 12:41 36.77896 13.55627 29281 ft 470 kts 316°
2026-04-14 12:41 36.80512 13.53168 29622 ft 471 kts 316°
2026-04-14 12:42 36.83131 13.50703 30042 ft 471 kts 316°
2026-04-14 12:42 36.85740 13.48246 30488 ft 469 kts 316°
2026-04-14 12:42 36.88338 13.45796 30915 ft 468 kts 316°
2026-04-14 12:42 36.90939 13.43348 31290 ft 468 kts 316°
2026-04-14 12:43 36.93543 13.40911 31639 ft 468 kts 316°
2026-04-14 12:43 36.96144 13.38459 32057 ft 467 kts 316°
2026-04-14 12:43 36.98735 13.36006 32375 ft 467 kts 316°
2026-04-14 12:43 37.01324 13.33551 32758 ft 466 kts 316°
2026-04-14 12:44 37.03874 13.31129 33123 ft 465 kts 316°
2026-04-14 12:44 37.06450 13.28680 33469 ft 465 kts 316°
2026-04-14 12:44 37.09019 13.26236 33806 ft 465 kts 316°
2026-04-14 12:45 37.16803 13.18826 33875 ft 468 kts 316°
2026-04-14 12:45 37.22048 13.14043 33878 ft 465 kts 318°
2026-04-14 12:46 37.27279 13.09246 33888 ft 465 kts 317°
2026-04-14 12:46 37.32544 13.04516 33889 ft 468 kts 322°
2026-04-14 12:47 37.38367 13.00727 33891 ft 475 kts 333°
2026-04-14 12:47 37.44601 12.97888 33891 ft 477 kts 336°
2026-04-14 12:48 37.50856 12.95121 33892 ft 476 kts 336°
2026-04-14 12:48 37.57095 12.92319 33892 ft 476 kts 336°
2026-04-14 12:49 37.63335 12.89496 33893 ft 476 kts 336°
2026-04-14 12:49 37.69314 12.86795 33894 ft 475 kts 336°
2026-04-14 12:50 37.78666 12.82569 33895 ft 475 kts 336°
2026-04-14 12:51 37.84889 12.79739 33896 ft 475 kts 336°
2026-04-14 12:51 37.90922 12.76989 33897 ft 475 kts 336°
2026-04-14 12:52 37.97144 12.74145 33897 ft 475 kts 336°
2026-04-14 12:52 38.03351 12.71302 33897 ft 473 kts 336°
2026-04-14 12:53 38.09543 12.68463 33895 ft 473 kts 336°
2026-04-14 12:53 38.15730 12.65620 33894 ft 473 kts 336°
2026-04-14 12:54 38.21924 12.62769 33893 ft 473 kts 336°
2026-04-14 12:54 38.28113 12.59915 33892 ft 473 kts 336°
2026-04-14 12:55 38.34293 12.57059 33891 ft 472 kts 336°
2026-04-14 12:55 38.40434 12.54216 33891 ft 473 kts 336°
2026-04-14 12:56 38.46623 12.51346 33891 ft 473 kts 336°
2026-04-14 12:56 38.52808 12.48473 33896 ft 473 kts 336°
2026-04-14 12:57 38.58988 12.45596 33906 ft 472 kts 336°
2026-04-14 12:57 38.65166 12.42716 33907 ft 472 kts 336°
2026-04-14 12:58 38.71334 12.39834 33907 ft 472 kts 336°
2026-04-14 12:58 38.77510 12.36944 33905 ft 472 kts 336°
2026-04-14 12:59 38.83684 12.34049 33906 ft 472 kts 336°
2026-04-14 12:59 38.89853 12.31151 33905 ft 472 kts 336°
2026-04-14 13:00 38.96017 12.28250 33905 ft 472 kts 337°
2026-04-14 13:00 39.02186 12.25341 33905 ft 471 kts 337°
2026-04-14 13:01 39.08306 12.22450 33906 ft 471 kts 337°
2026-04-14 13:01 39.14465 12.19536 33905 ft 471 kts 337°
2026-04-14 13:02 39.20627 12.16614 33905 ft 471 kts 338°
2026-04-14 13:02 39.26782 12.13690 33905 ft 471 kts 338°
2026-04-14 13:03 39.32930 12.10764 33901 ft 471 kts 338°
2026-04-14 13:03 39.39086 12.07829 33902 ft 471 kts 338°
2026-04-14 13:04 39.45234 12.04893 33900 ft 471 kts 338°
2026-04-14 13:04 39.51378 12.01952 33900 ft 470 kts 338°
2026-04-14 13:05 39.57472 11.99029 33899 ft 470 kts 338°
2026-04-14 13:05 39.63600 11.96085 33899 ft 469 kts 339°
2026-04-14 13:06 39.69724 11.93138 33899 ft 469 kts 339°
2026-04-14 13:06 39.75861 11.90179 33898 ft 470 kts 339°
2026-04-14 13:07 39.82002 11.87212 33899 ft 470 kts 339°
2026-04-14 13:07 39.88130 11.84245 33898 ft 470 kts 339°
2026-04-14 13:08 39.93231 11.81771 33898 ft 470 kts 339°
2026-04-14 13:08 40.00358 11.78309 33898 ft 470 kts 339°
2026-04-14 13:09 40.06484 11.75326 33900 ft 469 kts 339°
2026-04-14 13:09 40.12598 11.72344 33905 ft 469 kts 339°
2026-04-14 13:10 40.17681 11.69860 33905 ft 469 kts 339°
2026-04-14 13:10 40.23786 11.66872 33905 ft 468 kts 339°
2026-04-14 13:11 40.29887 11.63879 33905 ft 468 kts 339°
2026-04-14 13:11 40.35980 11.60885 33905 ft 467 kts 339°
2026-04-14 13:12 40.42051 11.57896 33905 ft 466 kts 339°
2026-04-14 13:12 40.48130 11.54897 33905 ft 465 kts 339°
2026-04-14 13:13 40.54186 11.51904 33905 ft 465 kts 339°
2026-04-14 13:13 40.60231 11.48910 33905 ft 464 kts 339°
2026-04-14 13:14 40.66272 11.45912 33905 ft 463 kts 339°
2026-04-14 13:14 40.72290 11.42920 33905 ft 463 kts 339°
2026-04-14 13:15 40.78305 11.39924 33905 ft 461 kts 339°
2026-04-14 13:15 40.84317 11.36924 33905 ft 461 kts 339°
2026-04-14 13:16 40.90302 11.33931 33905 ft 460 kts 339°
2026-04-14 13:16 40.96256 11.30948 33900 ft 459 kts 339°
2026-04-14 13:17 41.02237 11.27946 33900 ft 459 kts 339°
2026-04-14 13:17 41.08209 11.24942 33901 ft 459 kts 339°
2026-04-14 13:18 41.14167 11.21939 33901 ft 458 kts 339°
2026-04-14 13:18 41.20127 11.18929 33900 ft 458 kts 339°
2026-04-14 13:19 41.26086 11.15915 33899 ft 457 kts 339°
2026-04-14 13:19 41.32019 11.12907 33894 ft 457 kts 339°
2026-04-14 13:20 41.37962 11.09889 33894 ft 457 kts 339°
2026-04-14 13:20 41.43858 11.06888 33893 ft 456 kts 339°
2026-04-14 13:21 41.49769 11.03874 33894 ft 456 kts 339°
2026-04-14 13:21 41.55699 11.00845 33894 ft 455 kts 339°
2026-04-14 13:22 41.61615 10.97816 33895 ft 454 kts 339°
2026-04-14 13:22 41.67513 10.94791 33896 ft 454 kts 339°
2026-04-14 13:23 41.73425 10.91753 33896 ft 454 kts 339°
2026-04-14 13:23 41.79320 10.88718 33897 ft 453 kts 339°
2026-04-14 13:24 41.85207 10.85680 33898 ft 453 kts 339°
2026-04-14 13:24 41.94028 10.81118 33900 ft 452 kts 339°
2026-04-14 13:25 41.99866 10.78091 33901 ft 452 kts 339°
2026-04-14 13:26 42.11537 10.72021 33902 ft 449 kts 339°
2026-04-14 13:26 42.17360 10.68984 33902 ft 449 kts 339°
2026-04-14 13:27 42.23190 10.65937 33902 ft 448 kts 339°
2026-04-14 13:27 42.28997 10.62896 33902 ft 448 kts 339°
2026-04-14 13:28 42.34809 10.59846 33902 ft 448 kts 339°
2026-04-14 13:28 42.40615 10.56794 33896 ft 448 kts 338°
2026-04-14 13:29 42.46420 10.53754 33892 ft 448 kts 339°
2026-04-14 13:29 42.52226 10.50693 33891 ft 448 kts 338°
2026-04-14 13:30 42.58028 10.47617 33892 ft 447 kts 338°
2026-04-14 13:30 42.63808 10.44545 33892 ft 446 kts 338°
2026-04-14 13:31 42.69595 10.41468 33892 ft 446 kts 338°
2026-04-14 13:31 42.75178 10.38165 33892 ft 436 kts 332°
2026-04-14 13:32 42.80441 10.34193 33891 ft 432 kts 329°
2026-04-14 13:32 42.85675 10.30153 33614 ft 431 kts 329°
2026-04-14 13:33 42.88271 10.28168 33289 ft 425 kts 330°
2026-04-14 13:33 42.90845 10.26206 32881 ft 422 kts 330°
2026-04-14 13:33 42.93400 10.24261 32479 ft 419 kts 330°
2026-04-14 13:33 42.95939 10.22329 32082 ft 417 kts 330°
2026-04-14 13:34 43.00968 10.18501 31299 ft 411 kts 330°
2026-04-14 13:34 43.03459 10.16608 30915 ft 408 kts 331°
2026-04-14 13:34 43.05938 10.14744 30533 ft 405 kts 331°
2026-04-14 13:35 43.08403 10.12880 30156 ft 403 kts 331°
2026-04-14 13:35 43.10845 10.11040 29786 ft 400 kts 331°
2026-04-14 13:35 43.13277 10.09204 29417 ft 398 kts 331°
2026-04-14 13:35 43.15688 10.07369 29038 ft 395 kts 331°
2026-04-14 13:36 43.18079 10.05543 28660 ft 392 kts 330°
2026-04-14 13:36 43.20454 10.03723 28282 ft 390 kts 330°
2026-04-14 13:36 43.22820 10.01908 27905 ft 387 kts 330°
2026-04-14 13:36 43.25158 10.00111 27531 ft 385 kts 330°
2026-04-14 13:37 43.27487 9.98320 27159 ft 382 kts 330°
2026-04-14 13:37 43.29803 9.96538 26787 ft 380 kts 330°
2026-04-14 13:37 43.32070 9.94792 26421 ft 377 kts 330°
2026-04-14 13:37 43.34349 9.93038 26053 ft 375 kts 330°
2026-04-14 13:38 43.36618 9.91291 25683 ft 372 kts 330°
2026-04-14 13:38 43.38869 9.89553 25314 ft 370 kts 330°
2026-04-14 13:38 43.41106 9.87829 24955 ft 367 kts 330°
2026-04-14 13:38 43.43328 9.86114 24595 ft 365 kts 330°
2026-04-14 13:39 43.45539 9.84405 24232 ft 363 kts 330°
2026-04-14 13:39 43.47728 9.82710 23995 ft 357 kts 330°
2026-04-14 13:39 43.49875 9.81056 23929 ft 349 kts 331°
2026-04-14 13:39 43.51969 9.79459 23918 ft 339 kts 330°
2026-04-14 13:40 43.53997 9.77900 23905 ft 328 kts 330°
2026-04-14 13:40 43.55960 9.76382 23900 ft 319 kts 330°
2026-04-14 13:40 43.57867 9.74903 23890 ft 310 kts 330°
2026-04-14 13:40 43.59746 9.73443 23548 ft 312 kts 330°
2026-04-14 13:41 43.61679 9.71938 22783 ft 327 kts 330°
2026-04-14 13:41 43.63712 9.70353 21973 ft 343 kts 330°
2026-04-14 13:41 43.65784 9.68736 21415 ft 348 kts 330°
2026-04-14 13:41 43.67891 9.67091 21047 ft 347 kts 330°
2026-04-14 13:42 43.69993 9.65449 20687 ft 346 kts 330°
2026-04-14 13:42 43.72082 9.63816 20350 ft 344 kts 330°
2026-04-14 13:42 43.74158 9.62194 20008 ft 342 kts 330°
2026-04-14 13:42 43.76218 9.60584 19623 ft 335 kts 330°
2026-04-14 13:43 43.78228 9.59009 18904 ft 332 kts 331°
2026-04-14 13:43 43.80263 9.57431 18348 ft 336 kts 331°
2026-04-14 13:43 43.82295 9.55848 18031 ft 334 kts 331°
2026-04-14 13:43 43.84315 9.54266 17698 ft 332 kts 331°
2026-04-14 13:44 43.86320 9.52693 17364 ft 331 kts 331°
2026-04-14 13:44 43.88318 9.51122 17026 ft 329 kts 331°
2026-04-14 13:44 43.90305 9.49559 16693 ft 328 kts 331°
2026-04-14 13:44 43.92281 9.48002 16386 ft 325 kts 331°
2026-04-14 13:45 43.94245 9.46455 16057 ft 324 kts 331°
2026-04-14 13:45 43.96202 9.44908 15723 ft 323 kts 329°
2026-04-14 13:45 43.97935 9.42947 15384 ft 322 kts 311°
2026-04-14 13:45 43.99153 9.40356 15046 ft 322 kts 297°
2026-04-14 13:46 44.00029 9.37494 14697 ft 321 kts 290°
2026-04-14 13:46 44.00723 9.34548 14354 ft 321 kts 287°
2026-04-14 13:46 44.01371 9.31593 14016 ft 320 kts 288°
2026-04-14 13:46 44.02034 9.28649 13678 ft 318 kts 288°
2026-04-14 13:47 44.02479 9.26708 13454 ft 318 kts 288°
2026-04-14 13:47 44.03390 9.22812 13005 ft 316 kts 289°
2026-04-14 13:47 44.04102 9.19927 12671 ft 315 kts 290°
2026-04-14 13:47 44.04809 9.17036 12336 ft 314 kts 290°
2026-04-14 13:48 44.05500 9.14167 12002 ft 313 kts 289°
2026-04-14 13:48 44.06186 9.11298 11668 ft 312 kts 289°
2026-04-14 13:48 44.06743 9.08952 11387 ft 303 kts 289°
2026-04-14 13:48 44.07440 9.06011 11051 ft 299 kts 289°
2026-04-14 13:49 44.08080 9.03299 10738 ft 298 kts 289°
2026-04-14 13:49 44.08725 9.00560 10418 ft 298 kts 289°
2026-04-14 13:49 44.09369 8.97827 10119 ft 296 kts 289°
2026-04-14 13:49 44.10002 8.95132 10025 ft 287 kts 290°
2026-04-14 13:50 44.10618 8.92512 9806 ft 284 kts 290°
2026-04-14 13:50 44.11230 8.89909 9506 ft 283 kts 290°
2026-04-14 13:50 44.11837 8.87302 9201 ft 282 kts 290°
2026-04-14 13:50 44.12451 8.84714 8899 ft 282 kts 289°
2026-04-14 13:51 44.13061 8.82114 8591 ft 282 kts 290°
2026-04-14 13:51 44.13750 8.79574 8282 ft 280 kts 296°
2026-04-14 13:51 44.14632 8.77157 7970 ft 279 kts 300°
2026-04-14 13:51 44.15574 8.74797 7659 ft 278 kts 301°
2026-04-14 13:52 44.16505 8.72435 7348 ft 278 kts 300°
2026-04-14 13:52 44.17420 8.70071 7041 ft 277 kts 300°
2026-04-14 13:52 44.18325 8.67708 6735 ft 276 kts 300°
2026-04-14 13:52 44.19226 8.65348 6426 ft 275 kts 300°
2026-04-14 13:53 44.20119 8.63000 6171 ft 272 kts 300°
2026-04-14 13:53 44.20990 8.60714 6095 ft 262 kts 300°
2026-04-14 13:53 44.21974 8.58692 6011 ft 249 kts 319°
2026-04-14 13:53 44.23431 8.57573 5934 ft 236 kts 347°
2026-04-14 13:54 44.25055 8.57462 5586 ft 237 kts
2026-04-14 13:54 44.26647 8.57890 5257 ft 228 kts 14°
2026-04-14 13:54 44.28130 8.58517 5026 ft 215 kts 19°
2026-04-14 13:54 44.29518 8.59234 4979 ft 212 kts 17°
2026-04-14 13:55 44.30455 8.59616 4813 ft 215 kts 15°
2026-04-14 13:55 44.31927 8.60154 4515 ft 219 kts 14°
2026-04-14 13:55 44.33375 8.60676 4258 ft 209 kts 14°
2026-04-14 13:55 44.34709 8.61332 4006 ft 200 kts 31°
2026-04-14 13:56 44.35706 8.62639 3766 ft 195 kts 50°
2026-04-14 13:56 44.36481 8.64118 3556 ft 184 kts 52°
2026-04-14 13:56 44.37218 8.65519 3382 ft 176 kts 52°
2026-04-14 13:56 44.37959 8.66894 2992 ft 177 kts 51°
2026-04-14 13:57 44.38705 8.68246 2586 ft 174 kts 51°
2026-04-14 13:57 44.39439 8.69566 2202 ft 170 kts 51°
2026-04-14 13:57 44.40155 8.70855 1848 ft 164 kts 51°
2026-04-14 13:57 44.40816 8.72054 1751 ft 149 kts 51°
2026-04-14 13:58 44.41416 8.73140 1609 ft 142 kts 51°
2026-04-14 13:58 44.42029 8.74252 1351 ft 138 kts 50°
2026-04-14 13:58 44.42527 8.75393 1070 ft 139 kts 63°
2026-04-14 13:58 44.42635 8.76742 771 ft 145 kts 96°
2026-04-14 13:59 44.42350 8.78113 633 ft 146 kts 97°
2026-04-14 13:59 44.42114 8.79504 548 ft 149 kts 98°
2026-04-14 13:59 44.41831 8.80916 317 ft 152 kts 101°
2026-04-14 13:59 44.41552 8.82324 103 ft 147 kts 99°
2026-04-14 14:00 44.41307 8.83593 24 ft 118 kts 101°
2026-04-14 14:00 44.41077 8.84740 22 ft 136 kts 98°
2026-04-14 14:00 44.40918 8.85604 21 ft 25 kts 106°
2026-04-14 14:00 44.40883 8.85806 21 ft 11 kts 172°
2026-04-14 14:01 44.40872 8.85760 21 ft 14 kts 296°
2026-04-14 14:01 44.40926 8.85560 21 ft 24 kts 272°
2026-04-14 14:01 44.40971 8.85350 21 ft 22 kts 285°
2026-04-14 14:01 44.41018 8.85165 21 ft 12 kts 348°
2026-04-14 14:02 44.41084 8.85231 21 ft 12 kts 37°
2026-04-14 14:02 44.41163 8.85258 21 ft 11 kts 10°
2026-04-14 14:02 44.41238 8.85278 21 ft 11 kts 10°